• In Hungary
  • List of Countries
  • For 7 days
  • Water Temperature
  • Satellite Maps
  • Weather Map
  • News
  • Weather Widgets
  • user-avatar
    Login

    Hourly Weather Pecs

    Today, 18 January, Thursday

    Time Temperature Precipitation Wind Pressure Humidity
    00:00 -1°C° 0 mm 5 mps 737 mmHg 66%
    01:00 -1°C° 0 mm 3 mps 738 mmHg 69%
    02:00 -2°C° 0 mm 4 mps 738 mmHg 68%
    03:00 -1°C° 0 mm 4 mps 739 mmHg 67%
    04:00 -1°C° 0 mm 5 mps 739 mmHg 65%
    05:00 -1°C° 0 mm 5 mps 740 mmHg 65%
    06:00 -1°C° 0 mm 5 mps 740 mmHg 64%
    07:00 -2°C° 0 mm 4 mps 740 mmHg 65%
    08:00 -1°C° 0 mm 4 mps 741 mmHg 62%
    09:00 0°C° 0 mm 4 mps 741 mmHg 58%
    10:00 +3°C° 0 mm 4 mps 741 mmHg 55%
    11:00 +4°C° 0 mm 4 mps 741 mmHg 52%
    12:00 +4°C° 0 mm 4 mps 741 mmHg 49%
    13:00 +5°C° 0 mm 4 mps 741 mmHg 47%
    14:00 +5°C° 0 mm 4 mps 740 mmHg 50%
    15:00 +4°C° 0 mm 4 mps 740 mmHg 52%
    16:00 +4°C° 0 mm 4 mps 739 mmHg 54%
    17:00 +4°C° 0 mm 4 mps 738 mmHg 54%
    18:00 +2°C° 0 mm 5 mps 738 mmHg 55%
    19:00 +2°C° 0 mm 5 mps 737 mmHg 55%
    20:00 +2°C° 0 mm 6 mps 737 mmHg 56%
    21:00 +3°C° 0 mm 6 mps 736 mmHg 56%
    22:00 +3°C° 0 mm 7 mps 736 mmHg 57%
    23:00 +3°C° 0 mm 7 mps 736 mmHg 59%

    Tomorrow, 19 January, Friday

    Time Temperature Precipitation Wind Pressure Humidity
    00:00 +3°C° 0 mm 6 mps 736 mmHg 60%
    01:00 +3°C° 0 mm 6 mps 736 mmHg 62%
    02:00 +3°C° 0 mm 5 mps 736 mmHg 66%
    03:00 +4°C° 0 mm 3 mps 736 mmHg 69%
    04:00 +4°C° 0 mm 2 mps 736 mmHg 73%
    05:00 +4°C° 0 mm 2 mps 736 mmHg 74%
    06:00 +4°C° 0 mm 2 mps 736 mmHg 75%
    07:00 +4°C° 0 mm 2 mps 737 mmHg 76%
    08:00 +4°C° 0.2 mm 2 mps 737 mmHg 77%
    09:00 +3°C° 0.2 mm 3 mps 737 mmHg 77%
    10:00 +4°C° 0.2 mm 3 mps 738 mmHg 78%
    11:00 +4°C° 0.9 mm 3 mps 738 mmHg 80%
    12:00 +4°C° 0.9 mm 3 mps 738 mmHg 82%
    13:00 +4°C° 0.9 mm 3 mps 738 mmHg 83%
    14:00 +5°C° 0.9 mm 2 mps 738 mmHg 84%
    15:00 +5°C° 0.9 mm 2 mps 738 mmHg 85%
    16:00 +6°C° 0.9 mm 1 mps 739 mmHg 86%
    17:00 +5°C° 0.4 mm 1 mps 739 mmHg 82%
    18:00 +4°C° 0.4 mm 2 mps 740 mmHg 77%
    19:00 +4°C° 0.4 mm 2 mps 741 mmHg 72%
    20:00 +4°C° 0 mm 2 mps 741 mmHg 71%
    21:00 +4°C° 0 mm 2 mps 741 mmHg 70%
    22:00 +4°C° 0 mm 2 mps 742 mmHg 69%
    23:00 +3°C° 0 mm 2 mps 742 mmHg 69%

    Day after tomorrow, 20 January, Saturday

    Time Temperature Precipitation Wind Pressure Humidity
    00:00 +3°C° 0 mm 2 mps 742 mmHg 69%
    01:00 +3°C° 0 mm 2 mps 742 mmHg 69%
    02:00 +2°C° 0 mm 2 mps 742 mmHg 71%
    03:00 +2°C° 0 mm 2 mps 742 mmHg 74%
    04:00 +2°C° 0 mm 2 mps 742 mmHg 76%
    05:00 +1°C° 0 mm 2 mps 742 mmHg 79%
    06:00 +1°C° 0 mm 2 mps 742 mmHg 83%
    07:00 +1°C° 0 mm 1 mps 742 mmHg 86%
    08:00 +1°C° 0 mm 2 mps 742 mmHg 82%
    09:00 +2°C° 0 mm 2 mps 742 mmHg 78%
    10:00 +2°C° 0 mm 3 mps 742 mmHg 74%
    11:00 +3°C° 0 mm 3 mps 742 mmHg 69%
    12:00 +4°C° 0 mm 3 mps 741 mmHg 64%
    13:00 +5°C° 0 mm 3 mps 741 mmHg 60%
    14:00 +4°C° 0 mm 3 mps 740 mmHg 62%
    15:00 +4°C° 0 mm 3 mps 740 mmHg 65%
    16:00 +3°C° 0 mm 3 mps 740 mmHg 67%
    17:00 +3°C° 0 mm 3 mps 739 mmHg 71%
    18:00 +2°C° 0 mm 3 mps 739 mmHg 75%
    19:00 +1°C° 0 mm 3 mps 739 mmHg 78%
    20:00 +1°C° 0 mm 3 mps 738 mmHg 78%
    21:00 0°C° 0 mm 3 mps 738 mmHg 79%
    22:00 0°C° 0 mm 3 mps 737 mmHg 79%
    23:00 0°C° 0 mm 3 mps 737 mmHg 79%

    21 January, Sunday

    Time Temperature Precipitation Wind Pressure Humidity
    00:00 0°C° 0 mm 3 mps 736 mmHg 78%
    01:00 0°C° 0 mm 3 mps 736 mmHg 78%
    02:00 0°C° 0.1 mm 3 mps 735 mmHg 78%
    03:00 0°C° 0.1 mm 3 mps 735 mmHg 78%
    04:00 0°C° 0.1 mm 3 mps 734 mmHg 78%
    05:00 +1°C° 0.2 mm 2 mps 734 mmHg 79%
    06:00 +1°C° 0.2 mm 2 mps 734 mmHg 79%
    07:00 +2°C° 0.2 mm 2 mps 734 mmHg 80%
    08:00 +2°C° 0.4 mm 2 mps 735 mmHg 79%
    09:00 +1°C° 0.4 mm 3 mps 735 mmHg 78%
    10:00 +2°C° 0.4 mm 3 mps 736 mmHg 78%
    11:00 +1°C° 0.1 mm 4 mps 736 mmHg 77%
    12:00 +1°C° 0.1 mm 5 mps 737 mmHg 77%
    13:00 +1°C° 0.1 mm 6 mps 738 mmHg 76%
    14:00 0°C° 0.1 mm 7 mps 738 mmHg 77%
    15:00 -1°C° 0.1 mm 7 mps 739 mmHg 77%
    16:00 -1°C° 0.1 mm 7 mps 740 mmHg 78%
    17:00 -1°C° 0.1 mm 7 mps 741 mmHg 78%
    18:00 -2°C° 0.1 mm 7 mps 742 mmHg 78%
    19:00 -2°C° 0.1 mm 7 mps 742 mmHg 78%
    20:00 -2°C° 0 mm 6 mps 743 mmHg 78%
    21:00 -3°C° 0 mm 6 mps 744 mmHg 78%
    22:00 -2°C° 0 mm 5 mps 744 mmHg 77%
    23:00 -4°C° 0 mm 5 mps 744 mmHg 78%

    22 January, Monday

    Time Temperature Precipitation Wind Pressure Humidity
    00:00 -3°C° 0 mm 4 mps 745 mmHg 79%
    01:00 -3°C° 0 mm 4 mps 745 mmHg 79%
    02:00 -4°C° 0 mm 3 mps 745 mmHg 80%
    03:00 -4°C° 0 mm 3 mps 745 mmHg 81%
    04:00 -3°C° 0 mm 2 mps 746 mmHg 83%
    05:00 -3°C° 0 mm 2 mps 746 mmHg 83%
    06:00 -3°C° 0 mm 2 mps 746 mmHg 83%
    07:00 -1°C° 0 mm 1 mps 747 mmHg 83%
    08:00 0°C° 0 mm 1 mps 747 mmHg 77%
    09:00 +1°C° 0 mm 1 mps 747 mmHg 72%
    10:00 +1°C° 0 mm 1 mps 748 mmHg 67%
    11:00 +2°C° 0 mm 1 mps 748 mmHg 63%
    12:00 +3°C° 0 mm 1 mps 748 mmHg 59%
    13:00 +4°C° 0 mm 1 mps 748 mmHg 55%
    14:00 +3°C° 0 mm 1 mps 748 mmHg 58%
    15:00 +3°C° 0 mm 1 mps 748 mmHg 61%
    16:00 +3°C° 0 mm 1 mps 748 mmHg 64%
    17:00 +2°C° 0 mm 1 mps 748 mmHg 66%
    18:00 +1°C° 0 mm 1 mps 748 mmHg 69%
    19:00 +1°C° 0 mm 1 mps 749 mmHg 71%
    20:00 +1°C° 0 mm 1 mps 749 mmHg 72%
    21:00 -1°C° 0 mm 2 mps 749 mmHg 74%
    22:00 -2°C° 0 mm 2 mps 749 mmHg 75%
    23:00 -2°C° 0 mm 2 mps 749 mmHg 76%

    23 January, Tuesday

    Time Temperature Precipitation Wind Pressure Humidity
    00:00 -1°C° 0 mm 2 mps 749 mmHg 76%
    01:00 -1°C° 0 mm 2 mps 749 mmHg 76%
    02:00 -1°C° 0.1 mm 2 mps 748 mmHg 76%
    03:00 -1°C° 0.1 mm 2 mps 748 mmHg 75%
    04:00 -1°C° 0.1 mm 2 mps 748 mmHg 75%
    05:00 -1°C° 0.1 mm 2 mps 748 mmHg 76%
    06:00 -1°C° 0.1 mm 2 mps 748 mmHg 77%
    07:00 -1°C° 0.1 mm 2 mps 748 mmHg 78%
    08:00 +1°C° 0 mm 2 mps 748 mmHg 74%
    09:00 +1°C° 0 mm 2 mps 748 mmHg 70%
    10:00 +2°C° 0 mm 2 mps 748 mmHg 66%
    11:00 +3°C° 0 mm 2 mps 748 mmHg 64%
    12:00 +3°C° 0 mm 3 mps 747 mmHg 63%
    13:00 +4°C° 0 mm 3 mps 747 mmHg 61%
    14:00 +5°C° 0 mm 2 mps 747 mmHg 65%
    15:00 +5°C° 0 mm 2 mps 747 mmHg 68%
    16:00 +5°C° 0 mm 2 mps 747 mmHg 71%
    17:00 +4°C° 0 mm 2 mps 747 mmHg 73%
    18:00 +4°C° 0 mm 2 mps 748 mmHg 75%
    19:00 +4°C° 0 mm 2 mps 748 mmHg 77%
    20:00 +4°C° 0 mm 2 mps 748 mmHg 78%
    21:00 +3°C° 0 mm 3 mps 748 mmHg 78%
    22:00 +3°C° 0 mm 3 mps 749 mmHg 79%
    23:00 +3°C° 0.2 mm 3 mps 749 mmHg 81%
    Show more